Home > Weather > Freistadt > Past weeks

Flag for Austria Past Weather in Freistadt, Upper Austria, Austria — Yesterday and Last 2 Weeks

Now
63 °F

Mild.


Feels Like: 63 °F
Forecast: 54 / 76 °F
Wind: No wind

Location: Rohrbach

Current Time: Aug 24, 2016 at 11:54:18 PM

Latest Report: Aug 24, 2016 at 11:00 PM


Visibility: N/A

Pressure: 30.23 "Hg (28.29 "Hg at 565m altitude)

Humidity: 82%

Dew Point: 57 °F

Location of FreistadtLocation

Past Weather in Freistadt — Graph

°F

Freistadt Temperature Yesterday

Maximum temperature yesterday: 71 °F (at 3:00 PM)
Minimum temperature yesterday: 48 °F (at 7:00 AM)
Average temperature yesterday: 61 °F

High & Low Weather Summary for the Past Weeks

 TemperatureHumidityPressure
High78 °F (Aug 20, 3:00 PM)100% (Aug 11, 6:00 AM)30.43 "Hg (Aug 11, 6:00 AM)
Low42 °F (Aug 11, 7:00 AM)40% (Aug 17, 6:00 PM)29.76 "Hg (Aug 18, 4:00 PM)
Average61 °F79%30.11 "Hg
* Reported Aug 9 10:00 PM — Aug 24 10:00 PM, Freistadt, Weather by CustomWeather, © 2016

Note: Actual official high and low records may vary slightly from our data, if they occured in-between our weather recording intervals... More about our weather records

Advertising

Freistadt Weather History for the Previous 24 Hours

Scroll right to see more
 ConditionsComfort  
Time TempWeatherWind HumidityBarometerVisibility
10:00 PM
Wed, Aug 24
66 °FMild.1 mph77%30.23 "HgN/A
9:00 PM69 °FMild.2 mph64%30.22 "HgN/A
8:00 PM71 °FMild.1 mph59%30.20 "HgN/A
7:00 PM74 °FMild.2 mph53%30.19 "HgN/A
6:00 PM76 °FMild.2 mph50%30.19 "HgN/A
5:00 PMN/APassing clouds.14 mphN/AN/A6 mi
4:00 PM76 °FMild.1 mph50%30.20 "HgN/A
3:00 PM75 °FMild.1 mph50%30.21 "HgN/A
1:00 PM74 °FMild.2 mph51%30.24 "HgN/A
12:00 PM73 °FMild.2 mph55%30.25 "HgN/A
11:00 AM71 °FMild.1 mph63%30.26 "HgN/A
10:00 AM70 °FMild.2 mph68%30.27 "HgN/A
9:00 AM64 °FMild.1 mph81%30.30 "HgN/A
8:00 AM59 °FCool.1 mph91%30.32 "HgN/A
7:00 AM57 °FCool.1 mph95%30.32 "HgN/A
6:00 AM55 °FCool.1 mph98%30.32 "HgN/A
5:00 AM56 °FCool.1 mph98%30.31 "HgN/A
4:00 AM58 °FCool.No wind95%30.32 "HgN/A
3:00 AM58 °FCool.No wind94%30.33 "HgN/A
2:00 AM58 °FCool.1 mph94%30.34 "HgN/A
1:00 AM60 °FCool.1 mph92%30.34 "HgN/A
12:00 AM60 °FCool.No wind93%30.34 "HgN/A
11:00 PM
Tue, Aug 23
N/APassing clouds.5 mphN/AN/A1 mi
Weather by CustomWeather, © 2016

See weather overviewHow to use our weather pages